Flag for Austria Weather past 2 weeks in Lilienfeld, Lower Austria, Austria

Now
40 °F

Quite cool.


Feels Like: 36 °F
Forecast: 40 / 45 °F
Wind: 6 mph from Southwest

Location: Amstetten

Current Time: Oct 23, 2014 at 2:47:44 AM

Latest Report: Oct 23, 2014 at 2:00 AM


Visibility: N/A

Pressure: 29.85 "Hg

Humidity: 93%

Dew point: 38 °F

Location of LilienfeldLocation

Historic Weather in Lilienfeld — Graph

°F

Lilienfeld temperature yesterday

Maximum temperature yesterday: 54 °F (at 12:00 AM)
Minimum temperature yesterday: 42 °F (at 11:00 PM)
Average temperature yesterday: 45 °F

Past Weeks' High & Low Weather Summary

 TemperatureHumidityPressure
High72 °F (Oct 12, 3:00 PM)100% (Oct 10, 8:00 AM)30.32 "Hg (Oct 10, 8:00 AM)
Low41 °F (Oct 23, 1:00 AM)56% (Oct 14, 3:00 PM)29.63 "Hg (Oct 21, 11:00 PM)
Average56 °F91%29.96 "Hg
* Reported Oct 8 1:00 AM — Oct 23 1:00 AM, Lilienfeld, Weather by CustomWeather, © 2014

Note: Actual official high and low records may vary slightly from our data, if they occured in-between our weather recording intervals... More about our weather records

Advertising

Lilienfeld weather history for previous 24 hours

 ConditionsComfort  
Time TempWeatherWind HumidityBarometerVisibility
1:00 AM
Oct 23
41 °FFog.5 mph93%29.85 "HgN/A
12:00 AM41 °FSprinkles. Overcast.5 mph93%29.86 "HgN/A
11:00 PM
Oct 22
42 °FQuite cool.6 mph91%29.87 "HgN/A
10:00 PM42 °FQuite cool.5 mph90%29.86 "HgN/A
9:00 PM43 °FFog.5 mph90%29.86 "HgN/A
8:00 PM43 °FQuite cool.5 mph88%29.85 "HgN/A
7:00 PM44 °FFog.7 mph84%29.86 "HgN/A
6:00 PM44 °FQuite cool.6 mph85%29.86 "HgN/A
5:00 PM44 °FQuite cool.6 mph88%29.86 "HgN/A
4:00 PM44 °FSprinkles. Cloudy.6 mph90%29.86 "HgN/A
3:00 PM42 °FFog.6 mph93%29.86 "HgN/A
2:00 PM43 °FQuite cool.7 mph85%29.87 "HgN/A
1:00 PM44 °FFog.7 mph88%29.86 "HgN/A
12:00 PM45 °FSprinkles. Cloudy.6 mph86%29.85 "HgN/A
11:00 AM45 °FCool.5 mph81%29.85 "HgN/A
10:00 AM46 °FFog.6 mph78%29.85 "HgN/A
9:00 AM46 °FCool.5 mph75%29.85 "HgN/A
8:00 AM46 °FOvercast.5 mph83%29.85 "HgN/A
7:00 AM47 °FCool.5 mph78%29.84 "HgN/A
6:00 AM47 °FCool.5 mph77%29.84 "HgN/A
5:00 AM47 °FCool.5 mph80%29.83 "HgN/A
4:00 AM48 °FCool.6 mph78%29.83 "HgN/A
3:00 AM49 °FCool.8 mph77%29.83 "HgN/A
2:00 AM48 °FCool.10 mph82%29.84 "HgN/A
Weather by CustomWeather, © 2014

See weather overviewHow to use our weather pages